TimeEST,TemperatureF,Dew PointF,Humidity,Sea Level PressureIn,VisibilityMPH,Wind Direction,Wind SpeedMPH,Gust SpeedMPH,PrecipitationIn,Events,Conditions,WindDirDegrees,DateUTC
12:26 AM,68.0,66.2,94,30.04,7.0,East,5.8,-,0.15,Rain,Rain,80,2012-02-06 05:26:00
12:45 AM,68.0,66.2,94,30.03,10.0,ENE,5.8,-,0.19,Rain,Light Rain,70,2012-02-06 05:45:00
12:53 AM,68.0,68.0,100,30.03,10.0,ENE,4.6,-,0.21,Rain,Light Rain,70,2012-02-06 05:53:00
1:53 AM,57.9,57.9,100,30.01,10.0,NE,4.6,-,0.02,Rain,Light Rain,50,2012-02-06 06:53:00
2:53 AM,57.9,-9999,N/A,29.99,10.0,NNE,4.6,-,0.00,,Overcast,30,2012-02-06 07:53:00
3:53 AM,70.0,68.0,93,29.98,10.0,NE,4.6,-,N/A,,Overcast,40,2012-02-06 08:53:00
4:53 AM,69.1,68.0,96,29.98,10.0,NE,5.8,-,0.03,Rain,Light Rain,50,2012-02-06 09:53:00
5:53 AM,57.9,-9999,N/A,29.98,10.0,ENE,8.1,17.3,0.00,,Overcast,60,2012-02-06 10:53:00
6:28 AM,62.6,-9999,N/A,29.99,10.0,ENE,8.1,-,N/A,,Overcast,70,2012-02-06 11:28:00
6:53 AM,61.0,-9999,N/A,30.00,10.0,NE,5.8,-,N/A,,Mostly Cloudy,50,2012-02-06 11:53:00
7:53 AM,59.0,59.0,100,30.01,10.0,East,6.9,-,N/A,,Overcast,80,2012-02-06 12:53:00
8:53 AM,60.1,-9999,N/A,30.03,10.0,East,11.5,-,N/A,,Overcast,90,2012-02-06 13:53:00
9:40 AM,57.2,-9999,N/A,30.05,10.0,East,8.1,-,N/A,,Overcast,80,2012-02-06 14:40:00
9:53 AM,59.0,-9999,N/A,30.04,10.0,East,9.2,-,N/A,,Overcast,90,2012-02-06 14:53:00
10:10 AM,59.0,-9999,N/A,30.04,10.0,East,8.1,-,N/A,,Overcast,90,2012-02-06 15:10:00
10:53 AM,61.0,-9999,N/A,30.05,10.0,ENE,9.2,-,0.00,Rain,Light Rain,70,2012-02-06 15:53:00
11:53 AM,61.0,-9999,N/A,30.04,10.0,ESE,9.2,-,0.00,,Overcast,110,2012-02-06 16:53:00
12:53 PM,64.9,-9999,N/A,30.01,10.0,ESE,11.5,-,N/A,,Scattered Clouds,120,2012-02-06 17:53:00
1:53 PM,64.9,-9999,N/A,29.98,10.0,ESE,11.5,-,N/A,,Partly Cloudy,120,2012-02-06 18:53:00
2:53 PM,63.0,-9999,N/A,29.98,10.0,SE,10.4,-,N/A,,Scattered Clouds,130,2012-02-06 19:53:00
3:53 PM,77.0,69.8,78,29.96,10.0,SE,11.5,-,N/A,,Clear,130,2012-02-06 20:53:00
4:53 PM,77.0,69.8,78,29.96,10.0,SE,12.7,-,N/A,,Mostly Cloudy,140,2012-02-06 21:53:00
5:08 PM,77.0,69.8,78,29.96,10.0,SE,11.5,-,N/A,,Scattered Clouds,140,2012-02-06 22:08:00
5:53 PM,77.0,69.8,78,29.97,10.0,SE,8.1,-,N/A,,Scattered Clouds,130,2012-02-06 22:53:00
6:11 PM,75.2,68.0,78,29.98,10.0,SE,11.5,-,N/A,,Mostly Cloudy,130,2012-02-06 23:11:00
6:42 PM,75.2,68.0,78,29.98,10.0,ESE,10.4,-,N/A,,Scattered Clouds,120,2012-02-06 23:42:00
6:53 PM,75.2,68.0,78,29.98,10.0,ESE,10.4,-,N/A,,Partly Cloudy,120,2012-02-06 23:53:00
7:48 PM,71.6,64.4,78,29.98,10.0,SSE,16.1,23.0,N/A,,Mostly Cloudy,150,2012-02-07 00:48:00
7:53 PM,71.6,64.4,78,29.98,10.0,SE,15.0,-,N/A,,Mostly Cloudy,140,2012-02-07 00:53:00
8:01 PM,73.4,64.4,73,29.98,10.0,SE,12.7,-,N/A,,Scattered Clouds,140,2012-02-07 01:01:00
8:53 PM,73.4,64.4,73,29.99,10.0,SSE,13.8,-,N/A,,Overcast,160,2012-02-07 01:53:00
9:53 PM,-9999,-9999,N/A,30.01,10.0,SSE,6.9,-,N/A,,Partly Cloudy,150,2012-02-07 02:53:00
10:46 PM,-9999,-9999,N/A,30.00,10.0,SSE,8.1,-,N/A,,Mostly Cloudy,150,2012-02-07 03:46:00
10:53 PM,-9999,-9999,N/A,30.01,10.0,SSE,8.1,-,N/A,,Mostly Cloudy,160,2012-02-07 03:53:00
11:53 PM,-9999,-9999,N/A,30.01,10.0,SSE,8.1,-,N/A,,Overcast,150,2012-02-07 04:53:00